RH
39 39 39 38 37 37 36 36 35 36 36 39 40 39 38 37 36 38 38 39 38 38 35 36 40 41 40 37 36 35 36 40 42 41 44 49 52 53 49 42 38 36 57
43 43 43 44 45 43 41 42 43 44 42 41 41 41 41 40 42 42 41 42 42 41 41 42 42 39 37 37 36 33 33 32 31 30 30 34 38 45 51 50 46 47 66
52 52 53 53 53 54 56 54 52 49 46 47 46 45 43 44 43 45 45 45 44 42 40 40 38 36 33 33 32 31 32 32 31 31 30 27 28 30 36 51 59 59 73
50 52 53 55 56 57 57 56 52 51 52 51 49 47 45 46 47 48 49 46 45 45 42 38 35 35 36 37 39 39 40 41 40 38 38 37 35 32 33 37 57 68 69
48 50 54 55 55 54 53 53 53 53 52 50 50 48 48 50 53 53 50 50 44 39 36 38 40 41 41 43 43 44 47 46 43 42 42 42 41 40 34 34 48 66 69
43 47 51 51 51 50 51 51 52 50 47 47 47 51 53 56 55 54 55 47 40 41 42 42 45 46 48 51 53 55 54 56 55 55 52 49 47 46 40 37 38 66 72
39 40 44 46 47 46 46 47 46 45 46 48 52 56 56 55 54 54 48 46 47 49 52 55 59 62 64 66 70 72 69 64 67 66 62 58 53 53 49 43 38 59 69
38 39 40 42 44 46 47 46 46 48 51 55 59 58 57 57 50 47 47 50 56 57 60 61 62 66 68 68 71 74 77 73 75 78 73 67 63 61 58 54 46 46 72
37 37 39 40 41 44 46 50 53 54 59 62 61 60 59 51 45 49 53 58 58 60 61 64 67 69 76 78 77 77 81 80 82 81 83 76 76 73 68 62 53 51 70
36 39 43 45 47 50 50 53 58 61 66 63 64 61 55 47 46 55 58 60 60 61 67 70 75 79 81 81 78 78 83 90 93 92 86 84 83 84 79 71 59 55 75
38 44 50 52 54 55 58 62 63 69 68 70 66 59 53 45 52 56 63 65 66 66 68 74 79 80 77 72 75 77 82 88 96 98 97 92 86 89 83 77 66 60 68
42 47 55 58 59 63 67 68 72 72 73 72 67 60 53 48 53 62 66 69 70 71 70 78 80 82 80 77 77 76 78 84 92 99 98 97 94 91 91 81 71 59 72
43 48 63 67 68 72 76 77 81 82 77 73 70 61 51 51 56 68 67 68 70 72 73 74 78 82 85 83 85 82 78 81 83 90 98 98 97 94 90 88 74 62 73
45 53 62 75 78 81 85 90 93 86 80 79 66 55 52 52 63 70 71 71 72 71 68 70 78 82 87 90 92 93 93 82 78 74 75 83 90 93 90 78 72 66 78
42 50 60 78 86 89 95 98 96 93 83 74 67 57 57 59 66 75 75 77 73 70 73 74 78 82 88 93 93 95 97 87 82 73 84 83 90 90 90 84 74 73 84
43 51 59 64 77 91 94 94 93 88 78 71 68 62 61 61 65 75 78 76 75 71 75 81 81 86 93 93 95 95 98 97 82 90 90 95 87 84 96 85 81 76 75
49 57 56 54 59 68 70 69 70 69 71 66 68 64 63 64 70 73 74 76 75 73 74 80 84 92 94 98 97 98 98 99 95 83 75 81 93 95 89 84 86 88 85
46 44 43 44 42 43 42 44 42 39 43 51 56 57 55 60 64 72 76 75 78 75 76 80 85 91 96 98 97 98 97 98 98 96 77 80 88 93 90 82 72 70 78
38 37 37 40 42 40 34 28 26 22 28 36 41 51 55 53 56 64 71 76 82 81 82 84 87 92 93 98 97 97 98 98 99 99 93 79 82 85 88 92 96 87 77
36 34 38 33 28 28 25 24 22 21 20 22 31 35 45 52 50 53 63 71 80 84 80 90 87 90 95 98 97 98 98 99 99 97 97 95 90 97 93 93 97 92 89
28 25 23 22 22 22 22 22 22 22 20 20 21 20 20 29 48 50 52 59 70 81 82 82 88 83 86 94 98 96 98 97 99 99 97 97 98 98 96 96 97 92 85
21 20 20 20 20 20 20 21 21 20 20 19 19 18 16 15 15 24 40 46 49 62 77 79 79 78 77 84 88 93 97 97 98 97 98 96 95 97 98 95 96 96 94
23 21 20 20 20 20 18 17 18 17 18 18 18 17 15 15 14 14 14 18 27 41 49 69 77 77 75 75 79 90 94 96 98 97 99 97 94 96 98 98 97 98 98
19 18 17 17 17 16 16 16 16 16 17 17 16 16 15 15 14 14 13 13 13 15 25 39 62 71 72 72 72 72 91 97 98 97 98 98 99 93 99 98 99 99 91
20 19 19 18 18 18 17 16 17 16 16 16 16 16 15 14 13 13 13 13 13 12 12 14 26 45 64 69 70 65 74 88 96 98 98 98 98 98 93 98 99 97 97
23 20 20 20 20 19 18 17 17 16 16 16 15 16 15 14 13 13 12 12 12 12 12 12 12 15 29 51 65 65 67 72 88 92 98 98 98 98 99 97 97 96 96